Fort Wayne, IN

11:31 AM EDT on August 23, 2019 (GMT -0400)
Fort Wayne International

Weather History for KFWA - June, 2019

Change the Weather History Date:

Thursday, June 13, 2019

  Actual Average Record
Temperature  
Mean Temperature 58 °F 70 °F  
Max Temperature 63 °F 80 °F 96 °F (1956)
Min Temperature 52 °F 59 °F 43 °F (1903)
Degree Days  
Heating Degree Days 7 1  
Month to date heating degree days 17 22  
Since 1 June heating degree days 17 22  
Since 1 July heating degree days 5864 6094  
Cooling Degree Days 0 6  
Month to date cooling degree days 46 57  
Year to date cooling degree days 114 114  
Since 1 June cooling degree days 46 57  
Growing Degree Days 4 (Base 50)    
Moisture  
Dew Point 50 °F    
Average Humidity 76    
Maximum Humidity 89    
Minimum Humidity 62    
Precipitation  
Precipitation 0.35 in 0.15 in 3.02 in (1981)
Month to date precipitation 0.85 1.97  
Year to date precipitation 18.72 16.77  
Sea Level Pressure  
Sea Level Pressure 29.76 in    
Wind  
Wind Speed 14 mph (West)    
Max Wind Speed 29 mph    
Max Gust Speed 39 mph    
Visibility 7 miles    
Events Rain    
T = Trace of Precipitation, MM = Missing Value Source: NWS Daily Summary

Daily Weather History Graph

Daily Weather History Graph

Search for Another Location

Airport or City:

Astronomy

Jun. 13, 2019 Rise Set
Actual Time 6:08 AM EDT 9:13 PM EDT
Civil Twilight 5:34 AM EDT 9:47 PM EDT
Nautical Twilight 4:51 AM EDT 10:30 PM EDT
Astronomical Twilight 4:01 AM EDT 11:20 PM EDT
Moon 5:25 PM EDT (6/13) 3:55 AM EDT (6/13)
Length of Visible Light 16h 12m
Length of Day
15h 05m
Waxing Gibbous, 85% of the Moon is Illuminated
Jun 13
Waxing Gibbous
Jun 17
Full
Jun 25
Last Quarter
Jul 2
New
Jul 9
First Quarter

Hourly Weather History & Observations

Time (EDT) Temp. Dew Point Humidity Pressure Visibility Wind Dir Wind Speed Gust Speed Precip Events Conditions
12:54 AM 63.0 °F 51.1 °F 65% 29.75 in 10.0 mi WNW 16.1 mph 24.2 mph N/A   Overcast
1:54 AM 62.1 °F 51.1 °F 67% 29.74 in 10.0 mi WNW 10.4 mph - N/A   Overcast
2:54 AM 60.1 °F 53.1 °F 78% 29.72 in 10.0 mi North 3.5 mph - N/A   Overcast
3:54 AM 60.1 °F 52.0 °F 75% 29.70 in 10.0 mi SW 3.5 mph - 0.00 in   Overcast
4:54 AM 59.0 °F 54.0 °F 83% 29.69 in 10.0 mi SSW 4.6 mph - 0.00 in   Overcast
5:54 AM 59.0 °F 53.1 °F 81% 29.68 in 10.0 mi SSW 6.9 mph - N/A   Mostly Cloudy
6:54 AM 59.0 °F 52.0 °F 78% 29.67 in 10.0 mi SW 10.4 mph - N/A   Overcast
7:19 AM 57.9 °F 52.0 °F 81% 29.69 in 8.0 mi SW 10.4 mph - 0.00 in Rain Light Rain
7:33 AM 57.9 °F 54.0 °F 87% 29.68 in 2.0 mi SSW 11.5 mph - 0.00 in Rain Light Rain
7:36 AM 57.0 °F 54.0 °F 89% 29.68 in 3.0 mi SSW 10.4 mph - 0.01 in Rain Rain
7:54 AM 57.0 °F 54.0 °F 89% 29.67 in 8.0 mi SSW 10.4 mph - 0.01 in   Overcast
8:26 AM 57.9 °F 54.0 °F 87% 29.68 in 10.0 mi WSW 16.1 mph 21.9 mph 0.00 in Rain Light Rain
8:49 AM 57.2 °F 53.6 °F 88% 29.68 in 10.0 mi WSW 15.0 mph - 0.00 in Rain Light Rain
8:54 AM 57.0 °F 52.0 °F 83% 29.67 in 10.0 mi West 17.3 mph - 0.00 in Rain Light Rain
9:03 AM 55.0 °F 51.1 °F 86% 29.68 in 6.0 mi West 19.6 mph 26.5 mph 0.00 in Rain Light Rain
9:16 AM 55.0 °F 51.1 °F 86% 29.69 in 5.0 mi WSW 16.1 mph - 0.00 in Rain Light Rain
9:32 AM 55.9 °F 50.0 °F 80% 29.69 in 10.0 mi West 15.0 mph - 0.00 in Rain Light Rain
9:54 AM 55.0 °F 50.0 °F 83% 29.68 in 10.0 mi West 15.0 mph - 0.00 in   Overcast
10:13 AM 55.0 °F 51.1 °F 86% 29.69 in 6.0 mi WSW 13.8 mph - 0.00 in   Light Drizzle
10:37 AM 55.0 °F 52.0 °F 89% 29.68 in 2.5 mi WSW 16.1 mph - 0.00 in   Light Drizzle
10:44 AM 55.0 °F 52.0 °F 89% 29.68 in 1.5 mi West 18.4 mph 24.2 mph 0.00 in   Light Drizzle
10:50 AM 53.6 °F 51.8 °F 94% 29.68 in 2.5 mi West 18.4 mph - 0.00 in   Light Drizzle
10:54 AM 54.0 °F 51.1 °F 90% 29.68 in 3.0 mi West 19.6 mph 25.3 mph 0.00 in   Light Drizzle
11:43 AM 55.0 °F 51.1 °F 86% 29.69 in 7.0 mi West 18.4 mph - 0.00 in   Light Drizzle
11:54 AM 55.0 °F 51.1 °F 86% 29.69 in 4.0 mi West 23.0 mph 32.2 mph 0.00 in Rain Light Rain
11:59 AM 55.0 °F 51.1 °F 86% 29.70 in 2.5 mi WNW 21.9 mph 32.2 mph 0.00 in Rain Light Rain
12:05 PM 54.0 °F 51.1 °F 90% 29.70 in 2.0 mi West 25.3 mph 34.5 mph 0.00 in Rain Light Rain
12:12 PM 54.0 °F 51.1 °F 90% 29.71 in 1.8 mi WNW 26.5 mph 36.8 mph 0.01 in Rain Light Rain
12:31 PM 54.0 °F 50.0 °F 86% 29.72 in 1.5 mi West 24.2 mph 38.0 mph 0.03 in Rain Rain
12:38 PM 54.0 °F 50.0 °F 86% 29.73 in 2.5 mi West 23.0 mph 34.5 mph 0.04 in   Overcast
12:42 PM 53.1 °F 50.0 °F 89% 29.73 in 4.0 mi West 24.2 mph 32.2 mph 0.04 in Rain Light Rain
12:54 PM 53.1 °F 48.9 °F 86% 29.74 in 9.0 mi West 19.6 mph 36.8 mph 0.05 in Rain Light Rain
1:32 PM 53.1 °F 50.0 °F 89% 29.76 in 6.0 mi West 25.3 mph 32.2 mph 0.03 in Rain Rain
1:49 PM 53.6 °F 50.0 °F 88% 29.77 in 6.0 mi West 21.9 mph 32.2 mph 0.06 in Rain Rain
1:54 PM 53.1 °F 50.0 °F 89% 29.77 in 8.0 mi West 20.7 mph 32.2 mph 0.06 in Rain Light Rain
2:54 PM 53.1 °F 48.9 °F 86% 29.79 in 9.0 mi WNW 19.6 mph - 0.02 in Rain Light Rain
3:54 PM 54.0 °F 50.0 °F 86% 29.82 in 7.0 mi WNW 21.9 mph 32.2 mph 0.08 in Rain Light Rain
4:54 PM 53.1 °F 48.9 °F 86% 29.86 in 4.0 mi WNW 20.7 mph 32.2 mph 0.05 in Rain Light Rain
5:35 PM 53.1 °F 48.9 °F 86% 29.89 in 8.0 mi WNW 19.6 mph 28.8 mph 0.05 in Rain Light Rain
5:54 PM 53.1 °F 48.9 °F 86% 29.90 in 5.0 mi WNW 18.4 mph 31.1 mph 0.06 in Rain Light Rain
6:22 PM 54.0 °F 48.9 °F 83% 29.91 in 8.0 mi WNW 16.1 mph 26.5 mph 0.02 in Rain Light Rain
6:54 PM 55.9 °F 48.9 °F 77% 29.92 in 10.0 mi WNW 15.0 mph 25.3 mph 0.02 in   Mostly Cloudy
7:54 PM 57.0 °F 46.0 °F 67% 29.94 in 10.0 mi West 17.3 mph - N/A   Mostly Cloudy
8:54 PM 57.0 °F 44.1 °F 62% 29.96 in 10.0 mi West 15.0 mph - N/A   Mostly Cloudy
9:54 PM 55.0 °F 44.1 °F 67% 29.98 in 10.0 mi West 13.8 mph - N/A   Scattered Clouds
10:54 PM 52.0 °F 45.0 °F 77% 30.02 in 10.0 mi West 8.1 mph - N/A   Partly Cloudy
11:54 PM 53.1 °F 45.0 °F 74% 30.01 in 10.0 mi West 10.4 mph - N/A   Partly Cloudy